Skip Page Navigation
NASA JPL Caltech
NASA Logo - Jet Propulsion Laboratory + View the NASA Portal
+ Center for Near-Earth Object Studies
JPL Home Earth Solar System Stars & Galaxies Technology
JPL Solar System Dynamics
BODIES ORBITS EPHEMERIDES TOOLS PHYSICAL DATA DISCOVERY FAQ SITE MAP
IMPORTANT: The SSD Announcement email list is now available. Major changes are coming in the near future, including possible hostname and/or URL changes. To be notified of such changes, subscribe to this email list.

Please visit this page for more details.


JPL Small-Body Database Browser
Search: [ help ]  
26172 (1996 BV5)
Classification: Main-belt Asteroid          SPK-ID: 2026172
Ephemeris | Orbit Diagram | Orbital Elements | Mission Design | Physical Parameters | Discovery Circumstances | Close-Approach Data ]

[ show orbit diagram ]
Orbital Elements at Epoch 2458600.5 (2019-Apr-27.0) TDB
Reference: JPL 19 (heliocentric ecliptic J2000)
 Element Value Uncertainty (1-sigma)   Units 
e .06706705028382917 5.4523e-08  
a 2.558733841199791 1.5719e-08 au
q 2.387127110009109 1.4211e-07 au
i 15.56492256841188 4.5719e-06 deg
node 114.3859886159652 1.949e-05 deg
peri 314.3247308573043 3.8539e-05 deg
M 293.4574247068084 3.1502e-05 deg
tp 2458876.833285302717
(2020-Jan-28.33328530)
0.00013047 TDB
period 1494.982457030882
4.09
1.3776e-05
3.772e-08
d
yr
n .2408055012999818 2.2189e-09 deg/d
Q 2.730340572390473 1.6773e-08 au
  Orbit Determination Parameters
   # obs. used (total)      678  
   data-arc span      13585 days (37.19 yr)  
   first obs. used      1982-08-22  
   last obs. used      2019-11-01  
   planetary ephem.      DE431  
   SB-pert. ephem.      SB431-N16  
   condition code      0  
   norm. resid. RMS      .57053  
   source      ORB  
   producer      Otto Matic  
   solution date      2019-Nov-07 04:51:34  

Additional Information
 Earth MOID = 1.42384 au 
 Jupiter MOID = 2.45893 au 
 T_jup = 3.382 
[ show covariance matrix ]

Ephemeris | Orbit Diagram | Orbital Elements | Mission Design | Physical Parameters | Discovery Circumstances | Close-Approach Data ]

Physical Parameter Table
Parameter Symbol Value Units Sigma Reference Notes
absolute magnitude H 15.1   n/a MPO452536  

26172 (1996 BV5)          Discovered 1996-Jan-18 by Spacewatch at Kitt Peak
Reference: 20010705/Numbers.arcLast Updated: 2004-04-19

[ show close-approach data ]
Alternate Designations
 1996 BV5 = 2000 BA35 
Ephemeris | Orbit Diagram | Orbital Elements | Mission Design | Physical Parameters | Discovery Circumstances | Close-Approach Data ]
ABOUT SSD CREDITS/AWARDS PRIVACY/COPYRIGHT GLOSSARY LINKS
FirstGov
(server date/time)  
NASA Home Page
Site Manager:   Ryan S. Park
Webmaster  Alan B. Chamberlin